Weather History for Toledo, OH

Change the Weather History Date:

Monday, January 21, 2013

  Actual Average Record
Temperature  
Mean Temperature 14 °F 25 °F  
Max Temperature 20 °F 32 °F 70 °F (1906)
Min Temperature 8 °F 18 °F -20 °F (1984)
Degree Days  
Heating Degree Days 51 40  
Month to date heating degree days 741 831  
Since 1 July heating degree days 2992 3156  
Cooling Degree Days 0 0  
Month to date cooling degree days 0 0  
Year to date cooling degree days 0 0  
Moisture  
Dew Point 4 °F    
Average Humidity 66    
Maximum Humidity 80    
Minimum Humidity 51    
Precipitation  
Precipitation T in 0.06 in 1.53 in (1959)
Month to date precipitation 2.77 1.44  
Year to date precipitation 2.77 1.44  
Snow  
Snow 0.20 in 0.40 in - ()
Month to date snowfall 0.2 7.7  
Since 1 July snowfall 7.2 17.2  
Snow Depth 0.00 in    
Sea Level Pressure  
Sea Level Pressure 30.09 in    
Wind  
Wind Speed 15 mph (West)    
Max Wind Speed 30 mph    
Max Gust Speed 38 mph    
Visibility 8 miles    
Events Snow    
T = Trace of Precipitation, MM = Missing Value Source: NWS Daily Summary

Daily Weather History Graph

Daily Weather History Graph

Search for Another Location

Airport:

Trip Planner

Search our weather history database for the weather conditions in past years. The results will help you decide how hot, cold, wet, or windy it might be!

Date:

Astronomy

Jan. 21, 2013 Rise Set
Actual Time 7:56 AM EST 5:37 PM EST
Civil Twilight 7:25 AM EST 6:07 PM EST
Nautical Twilight 6:52 AM EST 6:41 PM EST
Astronomical Twilight 6:19 AM EST 7:14 PM EST
Moon 1:16 PM EST (1/21) 3:23 AM EST (1/21)
Length of Visible Light 10h 41m
Length of Day
9h 41m
Waxing Gibbous, 75% of the Moon is Illuminated
Jan 21
Waxing Gibbous
Jan 26
Full
Feb 3
Last Quarter
Feb 10
New
Feb 17
First Quarter

Hourly Weather History & Observations

Time (EST) Temp. Windchill Dew Point Humidity Pressure Visibility Wind Dir Wind Speed Gust Speed Precip Events Conditions
12:52 AM 18.0 °F 8.7 °F 3.9 °F 54% 30.17 in 10.0 mi West 6.9 mph - N/A   Overcast
1:52 AM 18.0 °F 9.8 °F 3.9 °F 54% 30.14 in 10.0 mi West 5.8 mph - N/A   Overcast
2:52 AM 18.0 °F 8.7 °F 5.0 °F 57% 30.14 in 10.0 mi West 6.9 mph - N/A   Overcast
3:52 AM 18.0 °F 9.8 °F 6.1 °F 60% 30.12 in 10.0 mi SSW 5.8 mph - N/A   Overcast
4:52 AM 18.0 °F 7.7 °F 8.1 °F 65% 30.09 in 10.0 mi SW 8.1 mph - N/A   Overcast
5:52 AM 18.0 °F 6.1 °F 7.0 °F 62% 30.07 in 10.0 mi SW 10.4 mph - N/A   Overcast
6:52 AM 19.0 °F 5.6 °F 8.1 °F 62% 30.07 in 10.0 mi WSW 13.8 mph - N/A   Overcast
7:52 AM 18.0 °F 2.6 °F 6.1 °F 60% 30.06 in 10.0 mi WSW 17.3 mph - N/A   Overcast
8:52 AM 18.0 °F 3.6 °F 5.0 °F 57% 30.06 in 10.0 mi WSW 15.0 mph - N/A   Overcast
9:52 AM 18.0 °F 2.6 °F 3.9 °F 54% 30.06 in 10.0 mi West 17.3 mph 24.2 mph N/A   Overcast
10:52 AM 19.0 °F 3.6 °F 5.0 °F 54% 30.06 in 10.0 mi WSW 18.4 mph - N/A   Overcast
11:52 AM 18.0 °F 2.6 °F 6.1 °F 60% 30.04 in 4.0 mi West 17.3 mph 25.3 mph 0.00 in Snow Light Snow
11:59 AM 17.6 °F 1.3 °F 5.0 °F 58% 30.00 in 4.0 mi West 19.6 mph 26.5 mph 0.00 in Snow Light Snow
12:14 PM 19.4 °F 2.1 °F 3.2 °F 49% 29.99 in 9.0 mi West 24.2 mph 31.1 mph 0.00 in   Overcast
12:52 PM 17.1 °F 0.1 °F 3.9 °F 56% 30.02 in 10.0 mi West 20.7 mph 31.1 mph 0.00 in   Overcast
1:52 PM 18.0 °F 0.9 °F 1.9 °F 50% 30.01 in 9.0 mi West 21.9 mph 28.8 mph 0.00 in Snow Light Snow
2:52 PM 18.0 °F 0.2 °F 3.9 °F 54% 30.03 in 5.0 mi West 24.2 mph 36.8 mph 0.00 in Snow Light Snow
3:52 PM 17.1 °F 0.1 °F -2.0 °F 43% 30.05 in 10.0 mi West 20.7 mph 36.8 mph 0.00 in   Scattered Clouds
4:52 PM 14.0 °F -3.4 °F 3.0 °F 62% 30.08 in 9.0 mi West 19.6 mph 29.9 mph 0.00 in Snow Light Snow
5:06 PM 14.0 °F -5.8 °F 3.2 °F 62% 30.05 in 2.5 mi West 26.5 mph 34.5 mph 0.00 in   Haze
5:08 PM 14.0 °F -5.1 °F 5.0 °F 67% 30.05 in 0.8 mi West 24.2 mph 34.5 mph 0.00 in Snow Light Snow
5:13 PM 12.2 °F -4.3 °F 8.6 °F 85% 30.05 in 0.2 mi West 16.1 mph 34.5 mph 0.00 in Snow Heavy Snow
5:20 PM 12.2 °F -3.1 °F 6.8 °F 79% 30.05 in 1.0 mi West 13.8 mph 23.0 mph 0.00 in Snow Light Snow
5:22 PM 12.2 °F -1.8 °F 6.8 °F 79% 30.05 in 2.0 mi West 11.5 mph 21.9 mph 0.00 in Snow Light Snow
5:30 PM 12.2 °F -3.7 °F 5.0 °F 73% 30.05 in 9.0 mi West 15.0 mph 21.9 mph 0.00 in   Mostly Cloudy
5:52 PM 12.0 °F -5.6 °F 3.0 °F 67% 30.09 in 9.0 mi West 18.4 mph 31.1 mph 0.00 in   Mostly Cloudy
6:52 PM 10.9 °F -5.4 °F 3.0 °F 70% 30.12 in 10.0 mi West 15.0 mph 26.5 mph 0.00 in   Scattered Clouds
7:52 PM 10.0 °F -6.5 °F -0.0 °F 64% 30.13 in 10.0 mi West 15.0 mph 23.0 mph N/A   Partly Cloudy
8:37 PM 8.6 °F -6.3 °F 1.4 °F 73% 30.10 in 10.0 mi West 11.5 mph - N/A   Mostly Cloudy
8:52 PM 9.0 °F -9.0 °F 1.0 °F 70% 30.14 in 10.0 mi West 17.3 mph 21.9 mph N/A   Mostly Cloudy
9:25 PM 8.6 °F -7.7 °F -0.4 °F 67% 30.10 in 10.0 mi West 13.8 mph 23.0 mph N/A   Mostly Cloudy
9:37 PM 8.6 °F -8.3 °F -0.4 °F 67% 30.11 in 10.0 mi West 15.0 mph 25.3 mph N/A   Scattered Clouds
9:52 PM 10.0 °F -5.9 °F -0.0 °F 64% 30.15 in 10.0 mi West 13.8 mph - N/A   Mostly Cloudy
10:25 PM 8.6 °F -7.0 °F 1.4 °F 73% 30.11 in 9.0 mi West 12.7 mph 23.0 mph N/A   Overcast
10:40 PM 8.6 °F -6.3 °F 3.2 °F 79% 30.11 in 2.0 mi West 11.5 mph - 0.00 in Snow Light Snow
10:49 PM 8.6 °F -8.3 °F 3.2 °F 79% 30.11 in 8.0 mi West 15.0 mph 21.9 mph 0.00 in Snow Light Snow
10:52 PM 9.0 °F -7.3 °F 3.0 °F 77% 30.16 in 9.0 mi West 13.8 mph 21.9 mph 0.00 in   Mostly Cloudy
11:52 PM 8.1 °F -9.6 °F 3.0 °F 80% 30.17 in 6.0 mi WSW 16.1 mph - 0.00 in   Haze
11:59 PM 8.6 °F -9.5 °F 1.4 °F 73% 30.12 in 8.0 mi WSW 17.3 mph - N/A   Overcast